Regional Weather Roundup
Issued by NWS

Home | Current Version | Previous Version | Graphics & Text | Print | Product List | Glossary On
Versions: 1 2 3 4 5 6 7 8 9 10 11 12 13 14 15 16 17 18 19 20 21 22 23 24 25 26 27 28 29 30 31 32 33 34 35 36 37 38 39 40 41 42 43 44 45 46 47 48 49 50
000
ASUS44 KMEG 271410
RWRTN
TENNESSEE HOURLY STATE WEATHER ROUNDUP
NATIONAL WEATHER SERVICE MEMPHIS TN
800 AM CST SAT DEC 27 2014

TNZ002-004-019-021-049-052-054-088>092-271500-
WEST TENNESSEE

CITY           SKY/WX    TMP DP  RH WIND       PRES   REMARKS
MEMPHIS INTL   CLOUDY    55  48  77 SE7       30.14R
NWS MEMPHIS      N/A     53 N/A N/A MISG        N/A
JACKSON        CLOUDY    52  43  71 S9        30.17S
DYERSBURG      CLOUDY    48  37  66 NE6       30.17S
UNION CITY     CLOUDY    46  46 100 SE6       30.16S
PARIS          CLOUDY    45  45 100 E5        30.18S
HUNTINGDON     CLOUDY    47  44  89 S3        30.19R
LEXINGTON      CLOUDY    52  39  62 S10       30.19S
SAVANNAH       CLOUDY    52  41  66 S16       30.21S
$$

TNZ008-025-027-028-033-062-065-066-271500-
NORTH MIDDLE TENNESSEE

CITY           SKY/WX    TMP DP  RH WIND       PRES   REMARKS
NASHVILLE      CLOUDY    50  42  74 SE5       30.23S
CLARKSVILLE    CLOUDY    47  45  93 CALM      30.21R
SMYRNA         CLOUDY    51  40  66 S6        30.25R
COOKEVILLE     CLOUDY    52  36  54 S7        30.25R
CROSSVILLE     CLOUDY    50  32  50 S8        30.27R
$$

TNZ061-075-076-078-094-096-097-271500-
SOUTH MIDDLE TENNESSEE

CITY           SKY/WX    TMP DP  RH WIND       PRES   REMARKS
FAYETTEVILLE   CLOUDY    48  37  66 MISG      30.27R
TULLAHOMA      CLOUDY    48  36  61 S8        30.26S
WINCHESTER     CLOUDY    48  37  66 SE7       30.28R
MCMINNVILLE    CLOUDY    46  46 100 CALM      30.25S
COLUMBIA       CLOUDY    52  45  76 S7        30.22R
SHELBYVILLE    CLOUDY    52  39  62 S7        30.26R
$$

TNZ017-018-042-046-047-271500-
NORTHEAST TENNESSEE

CITY           SKY/WX    TMP DP  RH WIND       PRES   REMARKS
TRI CITIES     MOSUNNY   38  33  82 CALM      30.29F
ELIZABETHTON   SUNNY     36  30  80 E6        30.29F WCI  31
$$

TNZ012-013-036-069-073-074-271500-
CENTRAL EAST TENNESSEE

CITY           SKY/WX    TMP DP  RH WIND       PRES   REMARKS
KNOXVILLE      CLOUDY    40  37  89 CALM      30.31R
OAK RIDGE      CLOUDY    40  37  89 SW3       30.33R
GATLINBURG     MOSUNNY   36  34  93 CALM      30.31R
MORRISTOWN     MOSUNNY   39  36  87 CALM      30.31R
$$

TNZ083-085-099-271500-
SOUTHEAST TENNESSEE

CITY           SKY/WX    TMP DP  RH WIND       PRES   REMARKS
CHATTANOOGA    CLOUDY    44  40  85 CALM      30.32R
$$

SKY/WX REPORTED AS FAIR MEANS FEW OR NO CLOUDS BELOW
12 THOUSAND FEET.



USA.gov is the U.S. government's official web portal to all federal, state and local government web resources and services.